Zurück zum Katalog

THURAYA 3

AktivKommunikationGEO
NORAD 32404·PAYLOAD·🇦🇪 UAE

Gestartet Jan 15, 2008 von Sea Launch Platform

Loading…

TLE

AktuellSource: Space-Track

Epoche: Sep 14, 2026, 12:23 UTC

1 32404U 08001A   26257.51646199  .00000002  00000-0  00000-0 0  9997
2 32404   6.1400  35.8288 0002376 165.9934  41.3310  1.00274078 68381

Verfolge THURAYA 3 in Echtzeit mit AllMySat

Download on the App Store